Weather History for Midland, MI

Change the Weather History Date:

Wednesday, August 28, 2013

  Actual Average (KMBS) Record (KMBS)
Temperature  
Mean Temperature 74 °F 67 °F  
Max Temperature 82 °F 78 °F 88 °F (1999)
Min Temperature 65 °F 57 °F 48 °F (2003)
Degree Days  
Heating Degree Days 0    
Month to date heating degree days  
Since 1 June heating degree days  
Since 1 July heating degree days  
Cooling Degree Days 9    
Month to date cooling degree days  
Year to date cooling degree days  
Since 1 June cooling degree days  
Growing Degree Days 24 (Base 50)    
Moisture  
Dew Point 70 °F    
Average Humidity 86    
Maximum Humidity 100    
Minimum Humidity 63    
Precipitation  
Precipitation 0.00 in 0.12 in 0.53 in (1998)
Month to date precipitation 2.96  
Year to date precipitation 20.17  
Snow  
Snow 0.00 in - - ()
Month to date snowfall  
Since 1 June snowfall  
Since 1 July snowfall  
Snow Depth -    
Sea Level Pressure  
Sea Level Pressure 29.93 in    
Wind  
Wind Speed 4 mph (NE)    
Max Wind Speed 10 mph    
Max Gust Speed -    
Visibility 7 miles    
Events      
T = Trace of Precipitation, MM = Missing Value Source: NWS Daily Summary

Daily Weather History Graph

Daily Weather History Graph

Search for Another Location

Airport:

Trip Planner

Search our weather history database for the weather conditions in past years. The results will help you decide how hot, cold, wet, or windy it might be!

Date:

Astronomy

Aug. 28, 2013 Rise Set
Actual Time 6:56 AM EDT 8:19 PM EDT
Civil Twilight 6:26 AM EDT 8:48 PM EDT
Nautical Twilight 5:50 AM EDT 9:24 PM EDT
Astronomical Twilight 5:12 AM EDT 10:02 PM EDT
Moon No Moon Rise 3:01 PM EDT
Length of Visible Light 14h 22m
Length of Day
13h 22m
Waning Gibbous, 47% of the Moon is Illuminated
Aug 28
Waning Gibbous
Sep 5
New
Sep 12
First Quarter
Sep 19
Full
Sep 26
Last Quarter

Hourly Weather History & Observations

Time (EDT) Temp. Heat Index Dew Point Humidity Pressure Visibility Wind Dir Wind Speed Gust Speed Precip Events Conditions
12:15 AM 71.6 °F - 69.8 °F 94% 29.82 in 10.0 mi Calm Calm - N/A   Scattered Clouds
12:38 AM 71.6 °F - 69.8 °F 94% 29.82 in 7.0 mi Calm Calm - N/A   Mostly Cloudy
2:40 AM 71.6 °F - 71.6 °F 100% 29.81 in 2.5 mi NE 3.5 mph - N/A   Mostly Cloudy
2:42 AM 71.6 °F - 71.6 °F 100% 29.81 in 3.0 mi NE 3.5 mph - N/A   Mostly Cloudy
2:54 AM 71.6 °F - 71.6 °F 100% 29.82 in 2.5 mi Calm Calm - N/A   Overcast
3:14 AM 71.6 °F - 71.6 °F 100% 29.82 in 0.8 mi Calm Calm - N/A   Overcast
3:34 AM 73.4 °F - 71.6 °F 94% 29.82 in 1.8 mi NNE 3.5 mph - N/A   Overcast
3:56 AM 73.4 °F - 73.4 °F 100% 29.83 in 4.0 mi Calm Calm - N/A   Overcast
4:17 AM 71.6 °F - 71.6 °F 100% 29.83 in 4.0 mi Calm Calm - N/A   Overcast
4:34 AM 73.4 °F - 73.4 °F 100% 29.84 in 4.0 mi North 3.5 mph - N/A   Overcast
4:54 AM 71.6 °F - 71.6 °F 100% 29.84 in 4.0 mi NNE 3.5 mph - N/A   Overcast
5:14 AM 71.6 °F - 71.6 °F 100% 29.85 in 2.5 mi NNE 5.8 mph - N/A   Overcast
5:34 AM 71.6 °F - 71.6 °F 100% 29.85 in 2.5 mi North 3.5 mph - N/A   Overcast
6:14 AM 71.6 °F - 71.6 °F 100% 29.86 in 3.0 mi Calm Calm - N/A   Overcast
6:15 AM 71.6 °F - 71.6 °F 100% 29.86 in 3.0 mi Calm Calm - N/A   Overcast
6:34 AM 71.6 °F - 71.6 °F 100% 29.87 in 4.0 mi North 3.5 mph - N/A   Overcast
6:55 AM 71.6 °F - 69.8 °F 94% 29.88 in 5.0 mi North 5.8 mph - N/A   Overcast
7:16 AM 71.6 °F - 69.8 °F 94% 29.88 in 4.0 mi North 4.6 mph - N/A   Overcast
7:34 AM 71.6 °F - 69.8 °F 94% 29.89 in 5.0 mi North 5.8 mph - N/A   Overcast
8:02 AM 71.6 °F - 69.8 °F 94% 29.89 in 5.0 mi North 4.6 mph - N/A   Overcast
8:14 AM 71.6 °F - 71.6 °F 100% 29.89 in 5.0 mi North 4.6 mph - N/A   Overcast
8:28 AM 71.6 °F - 70.9 °F 98% 29.90 in 10.0 mi North 5.8 mph - N/A   Overcast
8:33 AM 71.8 °F - 71.1 °F 98% 29.90 in 10.0 mi NNE 4.6 mph - N/A   Overcast
8:53 AM 71.8 °F - 70.9 °F 97% 29.90 in 10.0 mi NE 4.6 mph - N/A   Overcast
9:13 AM 72.5 °F - 71.2 °F 96% 29.90 in 10.0 mi NNE 6.9 mph - N/A   Overcast
9:33 AM 72.5 °F - 71.1 °F 95% 29.91 in 10.0 mi North 4.6 mph - N/A   Overcast
9:54 AM 72.9 °F - 71.1 °F 94% 29.92 in 10.0 mi NNE 5.8 mph - N/A   Overcast
10:13 AM 73.6 °F - 71.4 °F 93% 29.92 in 7.0 mi NNE 5.8 mph - N/A   Overcast
10:33 AM 74.1 °F - 71.6 °F 92% 29.92 in 7.0 mi NNE 4.6 mph - N/A   Overcast
10:53 AM 75.4 °F - 71.6 °F 88% 29.92 in 7.0 mi North 6.9 mph - N/A   Overcast
11:13 AM 75.4 °F - 71.2 °F 87% 29.93 in 7.0 mi NNE 5.8 mph - N/A   Overcast
11:33 AM 76.5 °F - 71.8 °F 85% 29.94 in 7.0 mi NNE 5.8 mph - N/A   Overcast
11:53 AM 77.4 °F - 71.6 °F 82% 29.94 in 7.0 mi NNE 8.1 mph - N/A   Overcast
12:13 PM 78.6 °F - 71.1 °F 78% 29.94 in 7.0 mi ENE 8.1 mph - N/A   Overcast
12:34 PM 78.8 °F - 70.7 °F 76% 29.95 in 10.0 mi ENE 8.1 mph - N/A   Mostly Cloudy
12:53 PM 81.0 °F 83.9 °F 68.7 °F 66% 29.95 in 10.0 mi ENE 9.2 mph - N/A   Mostly Cloudy
1:13 PM 80.8 °F 84.2 °F 70.0 °F 70% 29.95 in 10.0 mi NE 3.5 mph - N/A   Mostly Cloudy
1:27 PM 80.4 °F 83.2 °F 68.4 °F 67% 29.95 in 10.0 mi NE 6.9 mph - N/A   Scattered Clouds
1:54 PM 80.2 °F 83.2 °F 69.1 °F 69% 29.96 in 10.0 mi NNE 6.9 mph - N/A   Overcast
2:13 PM 82.8 °F 86.2 °F 69.1 °F 63% 29.96 in 10.0 mi NE 8.1 mph - N/A   Overcast
2:33 PM 82.0 °F 85.9 °F 70.0 °F 67% 29.97 in 10.0 mi ENE 8.1 mph - N/A   Mostly Cloudy
2:53 PM 80.6 °F 83.9 °F 69.8 °F 70% 29.96 in 10.0 mi ENE 6.9 mph - N/A   Mostly Cloudy
3:14 PM 82.8 °F 86.7 °F 70.0 °F 65% 29.96 in 10.0 mi ENE 9.2 mph - N/A   Scattered Clouds
3:33 PM 82.4 °F 86.3 °F 69.8 °F 66% 29.97 in 10.0 mi East 9.2 mph - N/A   Mostly Cloudy
3:54 PM 82.4 °F 86.1 °F 69.4 °F 65% 29.97 in 10.0 mi East 10.4 mph - N/A   Scattered Clouds
4:13 PM 82.4 °F 86.1 °F 69.4 °F 65% 29.97 in 10.0 mi East 10.4 mph - N/A   Scattered Clouds
4:33 PM 81.9 °F 85.2 °F 69.3 °F 65% 29.97 in 10.0 mi East 9.2 mph - N/A   Clear
4:53 PM 81.9 °F 85.2 °F 69.3 °F 65% 29.96 in 10.0 mi East 8.1 mph - N/A   Clear
5:14 PM 81.0 °F 84.1 °F 68.9 °F 67% 29.97 in 10.0 mi East 9.2 mph - N/A   Clear
5:33 PM 81.1 °F 84.4 °F 69.1 °F 67% 29.98 in 10.0 mi East 9.2 mph - N/A   Clear
5:53 PM 80.6 °F 83.4 °F 68.4 °F 66% 29.98 in 10.0 mi East 8.1 mph - N/A   Clear
6:13 PM 80.6 °F 83.2 °F 68.0 °F 65% 29.99 in 10.0 mi East 9.2 mph - N/A   Clear
6:33 PM 79.3 °F - 67.3 °F 66% 29.99 in 10.0 mi ENE 9.2 mph - N/A   Clear
6:54 PM 78.8 °F - 67.6 °F 68% 29.99 in 10.0 mi East 5.8 mph - N/A   Clear
7:13 PM 78.1 °F - 67.1 °F 69% 29.99 in 10.0 mi East 5.8 mph - N/A   Clear
7:34 PM 77.2 °F - 67.8 °F 73% 29.99 in 10.0 mi ENE 6.9 mph - N/A   Clear
7:53 PM 75.4 °F - 67.6 °F 77% 30.00 in 10.0 mi East 5.8 mph - N/A   Clear
8:14 PM 73.2 °F - 68.2 °F 84% 30.00 in 10.0 mi NE 3.5 mph - N/A   Clear
8:33 PM 72.5 °F - 68.0 °F 86% 30.00 in 10.0 mi Calm Calm - N/A   Clear
8:54 PM 71.1 °F - 68.9 °F 93% 30.01 in 10.0 mi NE 3.5 mph - N/A   Clear
9:13 PM 71.1 °F - 69.1 °F 93% 30.02 in 10.0 mi Calm Calm - N/A   Clear
9:34 PM 70.2 °F - 68.9 °F 96% 30.02 in 10.0 mi Calm Calm - N/A   Clear
9:54 PM 68.9 °F - 68.0 °F 97% 30.02 in 7.0 mi Calm Calm - N/A   Clear
10:13 PM 68.4 °F - 68.0 °F 99% 30.03 in 5.0 mi Calm Calm - N/A   Clear
10:33 PM 67.5 °F - 67.1 °F 99% 30.03 in 4.0 mi Calm Calm - N/A   Clear
10:54 PM 66.6 °F - 66.2 °F 99% 30.04 in 1.2 mi Calm Calm - N/A   Mist
11:13 PM 66.6 °F - 66.4 °F 99% 30.04 in 1.2 mi Calm Calm - N/A   Mist
11:34 PM 66.4 °F - 66.2 °F 99% 30.04 in 3.0 mi Calm Calm - N/A   Clear
11:53 PM 65.3 °F - 65.1 °F 99% 30.04 in 1.8 mi Calm Calm - N/A   Mist